User: anonymous   Login
Location: Chateh
(58.6667°N, 118.6000°W)
Time: 03:34:37
(UTC+00:00)
Language:

DOVE 4 - Orbit

View from above orbital plane
View from above orbital plane
View from above satellite
View from above satellite

Ground track
Ground track

The orbit data is extracted from the following two-line orbital elements,

1 39430U 13066Q   24054.75364887  .00002983  00000-0  50935-3 0  9995
2 39430  97.7504 296.0219 0140481 256.3271 102.2258 14.63349796546306
Epoch (UTC): 23 February 2024 18:05:15
Eccentricity: 0.0140481
inclination: 97.7504°
perigee height: 583 km
apogee height: 781 km
right ascension of ascending node: 296.0219°
argument of perigee: 256.3271°
revolutions per day: 14.63349796
mean anomaly at epoch: 102.2258°
orbit number at epoch: 54630

The dashed part of the orbit path shows where the satellite is in the earth's shadow,  

DLR